Current Weather Conditions: station 62161

sailwx.info

Wind from 100

Wave height 2.5 meters (8 feet)

Air temperature 9.1° C
Visibility: greater than 5.4 NM
Dewpoint 5.4° C

Last reported at 2019-Nov-11 22:00 UTC.
Time now 2019-Nov-11 23:22 UTC

Location: N 58°24' E 001°12'.
View on Google Maps.

See reports from other nearby stations

  
Tides and Currents Weather Stations Pressure Air Temp Water Temp Dewpoint Dewpoint Depression Visibility Wind Speed Wind Dir Waves Ship Positions
date/time (UTC)wind fromknots sea level pressurealtimeterstation pressurevisibilityair tempwater tempwave heightnotes
2019-Nov-11 22:00 100 5.4 9.1 2.5
2019-Nov-11 21:00 110 5.4 9.2 2.4
2019-Nov-11 20:00 120 10.8 9.1 2.2
2019-Nov-11 19:00 120 10.8 8.8 2.5
2019-Nov-11 18:00 130 10.8 8.6 2.4
2019-Nov-11 17:00 120 10.8 8.4 2.5
2019-Nov-11 16:00 130 5.4 8.4 2.7
2019-Nov-11 15:00 10.8
2019-Nov-11 14:00 130 10.8 7.8 2.5
2019-Nov-11 13:00 130 5.4 7.4 2.2
2019-Nov-11 12:00 130 10.8 7.0 2.1
2019-Nov-11 11:00 130 10.8 6.7 1.8
2019-Nov-11 10:00 130 5.4 6.4 1.8
2019-Nov-11 09:00 130 10.8 6.3 1.4
2019-Nov-11 08:00 140 2.2 6.0 1.3
2019-Nov-11 07:00 130 10.8 6.0 1.2
2019-Nov-11 06:00 130 10.8 5.9 1.1
2019-Nov-11 05:00 140 10.8 6.0 1.1
2019-Nov-11 04:00 130 27.0 6.0 1.1
2019-Nov-11 03:00 120 10.8 6.0 1.1
2019-Nov-11 02:00 120 10.8 6.1 1.2
2019-Nov-11 01:00 110 10.8 6.3 1.3
2019-Nov-11 00:00 150 27.0 6.5 1.4
2019-Nov-10 23:00 140 27.0 6.6 1.5
2019-Nov-10 22:00 140 27.0 6.4 1.6
2019-Nov-10 21:00 090 10.8 7.0 1.7
2019-Nov-10 20:00 070 10.8 6.3 1.6
2019-Nov-10 19:00 070 10.8 6.5 1.8
2019-Nov-10 18:00 050 27.0 6.0 2.0
2019-Nov-10 17:00 050 10.8 6.2 1.8
2019-Nov-10 16:00 030 27.0 5.9 1.7
2019-Nov-10 15:00 030 27.0 6.0 1.9
2019-Nov-10 14:00 050 27.0 6.8 1.8
2019-Nov-10 13:00 040 27.0 6.1 1.9
2019-Nov-10 12:00 040 27.0 6.0 2.1
2019-Nov-10 11:00 020 27.0 5.0 1.9
2019-Nov-10 10:00 040 10.8 6.3 2.1
2019-Nov-10 09:00 030 27.0 5.6 2.1
2019-Nov-10 08:00 020 27.0 5.5 2.0
2019-Nov-10 07:00 020 10.8 5.5 1.8
2019-Nov-10 06:00 020 10.8 5.6 1.5
2019-Nov-10 05:00 020 27.0 5.5 1.4
2019-Nov-10 04:00
2019-Nov-10 03:00
2019-Nov-10 02:00 360 27.0 5.4 1.3
2019-Nov-10 01:00 030 27.0 5.9 1.1
2019-Nov-10 00:00 040 27.0 6.3 1.1
2019-Nov-09 23:00 040 27.0 6.6 1.1